| time (UTC) | temp F | wind direction | speed MPH | gust MPH | rain 1hr in | rain 24hr in | rain mn in | humidity % | barometer mb |
| 20260507124351 | 50 | 292 | 0.0 | 0.0 | 0.00 | 0.35 | 0.15 | 84 | 1013.1 |
| 20260507123850 | 49 | 292 | 0.0 | 0.0 | 0.00 | 0.35 | 0.15 | 85 | 1013.0 |
| 20260507123352 | 49 | 292 | 0.0 | 0.0 | 0.00 | 0.35 | 0.15 | 86 | 1013.0 |
| 20260507122843 | 49 | 292 | 0.0 | 0.0 | 0.00 | 0.36 | 0.15 | 88 | 1013.0 |
| 20260507122620 | 49 | 292 | 0.0 | 0.0 | 0.00 | 0.37 | 0.15 | 88 | 1013.1 |
| 20260507121840 | 49 | 292 | 0.0 | 0.0 | 0.00 | 0.38 | 0.15 | 89 | 1013.0 |
| 20260507121338 | 49 | 292 | 0.0 | 0.0 | 0.00 | 0.39 | 0.15 | 89 | 1013.0 |
| 20260507120838 | 49 | 292 | 0.0 | 0.0 | 0.00 | 0.39 | 0.15 | 89 | 1012.8 |
| 20260507120614 | 49 | 292 | 0.0 | 0.0 | 0.00 | 0.40 | 0.15 | 90 | 1012.9 |
| 20260507115829 | 49 | 292 | 0.0 | 0.0 | 0.00 | 0.40 | 0.15 | 90 | 1012.9 |
| 20260507115329 | 49 | 292 | 0.0 | 0.0 | 0.00 | 0.41 | 0.15 | 90 | 1012.8 |
| 20260507114830 | 49 | 292 | 0.0 | 0.0 | 0.00 | 0.41 | 0.15 | 90 | 1012.8 |
| 20260507114614 | 49 | 292 | 0.0 | 0.0 | 0.00 | 0.41 | 0.15 | 91 | 1012.8 |
| 20260507113830 | 50 | 292 | 0.0 | 0.0 | 0.00 | 0.41 | 0.15 | 91 | 1012.9 |
| 20260507113329 | 50 | 292 | 0.0 | 0.0 | 0.00 | 0.41 | 0.15 | 91 | 1012.9 |
| 20260507113110 | 50 | 292 | 0.0 | 0.0 | 0.00 | 0.41 | 0.15 | 91 | 1013.0 |
| 20260507112329 | 50 | 292 | 0.0 | 0.0 | 0.00 | 0.41 | 0.15 | 91 | 1012.8 |
| 20260507111829 | 50 | 292 | 0.0 | 0.0 | 0.00 | 0.41 | 0.15 | 92 | 1012.8 |
| 20260507111328 | 50 | 292 | 0.0 | 0.0 | 0.00 | 0.41 | 0.15 | 92 | 1012.9 |
| 20260507110828 | 50 | 292 | 0.0 | 0.0 | 0.00 | 0.41 | 0.15 | 92 | 1012.9 |
| 20260507110329 | 50 | 292 | 0.0 | 0.0 | 0.00 | 0.41 | 0.15 | 92 | 1012.8 |
| 20260507105829 | 50 | 292 | 0.0 | 0.0 | 0.00 | 0.41 | 0.15 | 92 | 1012.8 |
| 20260507105328 | 50 | 292 | 0.0 | 0.0 | 0.00 | 0.41 | 0.15 | 92 | 1012.8 |
| 20260507104828 | 50 | 292 | 0.0 | 0.0 | 0.00 | 0.41 | 0.15 | 92 | 1012.7 |
| 20260507104329 | 50 | 292 | 0.0 | 0.0 | 0.00 | 0.41 | 0.15 | 92 | 1012.4 |
| 20260507103830 | 50 | 292 | 0.0 | 0.0 | 0.00 | 0.41 | 0.15 | 92 | 1012.4 |
| 20260507103328 | 50 | 292 | 0.0 | 0.0 | 0.00 | 0.41 | 0.15 | 92 | 1012.3 |
| 20260507103106 | 50 | 292 | 0.0 | 0.0 | 0.00 | 0.41 | 0.15 | 92 | 1012.3 |
| 20260507102322 | 50 | 292 | 0.0 | 0.0 | 0.00 | 0.41 | 0.15 | 92 | 1012.1 |
| 20260507102059 | 51 | 292 | 0.0 | 0.0 | 0.00 | 0.41 | 0.15 | 92 | 1012.2 |
| 20260507101316 | 51 | 292 | 0.0 | 0.0 | 0.00 | 0.41 | 0.15 | 92 | 1012.0 |
| 20260507101113 | 51 | 292 | 0.0 | 0.0 | 0.00 | 0.41 | 0.15 | 92 | 1012.2 |
| 20260507100314 | 51 | 292 | 0.0 | 0.0 | 0.00 | 0.41 | 0.15 | 92 | 1011.9 |
| 20260507095815 | 51 | 292 | 0.0 | 0.0 | 0.00 | 0.41 | 0.15 | 92 | 1011.9 |
| 20260507095316 | 51 | 292 | 0.0 | 0.0 | 0.00 | 0.41 | 0.15 | 92 | 1011.7 |
| 20260507095058 | 51 | 292 | 0.0 | 0.0 | 0.00 | 0.41 | 0.15 | 92 | 1011.9 |
| 20260507094315 | 51 | 292 | 0.0 | 0.0 | 0.00 | 0.41 | 0.15 | 92 | 1011.8 |
| 20260507093817 | 51 | 292 | 0.0 | 0.0 | 0.00 | 0.41 | 0.15 | 92 | 1011.9 |
| 20260507093309 | 51 | 292 | 0.0 | 0.0 | 0.00 | 0.41 | 0.15 | 92 | 1011.8 |
| 20260507092804 | 51 | 292 | 0.0 | 0.0 | 0.00 | 0.41 | 0.15 | 92 | 1011.8 |
| 20260507092306 | 51 | 292 | 0.0 | 0.0 | 0.00 | 0.41 | 0.15 | 92 | 1011.8 |
| 20260507091803 | 51 | 292 | 0.0 | 0.0 | 0.00 | 0.41 | 0.15 | 92 | 1011.7 |
| 20260507091303 | 51 | 292 | 0.0 | 0.0 | 0.00 | 0.41 | 0.15 | 92 | 1011.7 |
| 20260507091045 | 51 | 292 | 0.0 | 0.0 | 0.00 | 0.41 | 0.15 | 92 | 1012.0 |
| 20260507090304 | 51 | 292 | 0.0 | 0.0 | 0.00 | 0.41 | 0.15 | 92 | 1011.9 |
| 20260507085804 | 51 | 292 | 0.0 | 0.0 | 0.00 | 0.41 | 0.15 | 92 | 1011.7 |
| 20260507085306 | 52 | 292 | 0.0 | 0.0 | 0.00 | 0.41 | 0.15 | 92 | 1011.7 |
| 20260507084804 | 52 | 292 | 0.0 | 0.0 | 0.00 | 0.41 | 0.15 | 92 | 1011.7 |
| 20260507084304 | 52 | 292 | 0.0 | 0.0 | 0.00 | 0.41 | 0.15 | 92 | 1011.6 |
| 20260507083804 | 52 | 292 | 0.0 | 0.0 | 0.00 | 0.41 | 0.15 | 92 | 1011.5 |
| 20260507083305 | 52 | 292 | 0.0 | 0.0 | 0.00 | 0.41 | 0.15 | 92 | 1011.6 |
| 20260507082803 | 52 | 292 | 0.0 | 0.0 | 0.00 | 0.41 | 0.15 | 92 | 1011.4 |
| 20260507082545 | 52 | 292 | 0.0 | 0.0 | 0.00 | 0.41 | 0.15 | 92 | 1011.4 |
| 20260507081806 | 52 | 292 | 0.0 | 0.0 | 0.00 | 0.41 | 0.15 | 92 | 1011.4 |
| 20260507081307 | 52 | 292 | 0.0 | 0.0 | 0.00 | 0.41 | 0.15 | 92 | 1011.0 |
| 20260507080807 | 51 | 292 | 0.0 | 0.0 | 0.00 | 0.41 | 0.15 | 91 | 1010.9 |
| 20260507080306 | 52 | 292 | 0.0 | 0.0 | 0.00 | 0.41 | 0.15 | 91 | 1010.9 |
| 20260507075807 | 52 | 292 | 0.0 | 0.0 | 0.00 | 0.41 | 0.15 | 91 | 1011.0 |
| 20260507075307 | 52 | 292 | 0.0 | 0.0 | 0.00 | 0.41 | 0.15 | 91 | 1011.1 |
| 20260507074806 | 52 | 292 | 0.0 | 0.0 | 0.00 | 0.41 | 0.15 | 91 | 1010.9 |
| 20260507074306 | 52 | 292 | 0.0 | 0.0 | 0.00 | 0.41 | 0.15 | 91 | 1010.9 |
| 20260507074044 | 52 | 292 | 0.0 | 0.0 | 0.01 | 0.41 | 0.15 | 91 | 1010.9 |
| 20260507073305 | 52 | 292 | 0.0 | 0.0 | 0.01 | 0.41 | 0.15 | 91 | 1010.8 |
| 20260507072803 | 52 | 292 | 0.0 | 0.0 | 0.03 | 0.41 | 0.15 | 91 | 1010.8 |
| 20260507072306 | 52 | 292 | 0.0 | 0.0 | 0.04 | 0.41 | 0.15 | 91 | 1010.9 |
| 20260507071804 | 52 | 292 | 0.0 | 0.0 | 0.04 | 0.41 | 0.15 | 90 | 1010.9 |
| 20260507071303 | 52 | 292 | 0.0 | 0.0 | 0.04 | 0.41 | 0.15 | 90 | 1010.8 |
| 20260507070803 | 53 | 292 | 0.0 | 2.0 | 0.04 | 0.41 | 0.15 | 90 | 1010.9 |
| 20260507070302 | 53 | 292 | 0.0 | 2.0 | 0.04 | 0.41 | 0.15 | 91 | 1011.0 |
| 20260507065802 | 53 | 292 | 0.0 | 0.0 | 0.04 | 0.37 | 0.15 | 91 | 1011.0 |
| 20260507065541 | 53 | 292 | 0.0 | 0.0 | 0.04 | 0.37 | 0.15 | 91 | 1011.0 |
| 20260507064803 | 53 | 292 | 0.0 | 0.0 | 0.04 | 0.37 | 0.15 | 91 | 1011.2 |
| 20260507064303 | 53 | 292 | 0.0 | 1.0 | 0.04 | 0.37 | 0.15 | 91 | 1011.4 |
| 20260507063803 | 53 | 292 | 0.0 | 1.0 | 0.03 | 0.37 | 0.14 | 91 | 1011.4 |
| 20260507063303 | 53 | 292 | 0.0 | 0.0 | 0.03 | 0.37 | 0.13 | 91 | 1011.3 |
| 20260507062803 | 54 | 292 | 0.0 | 1.0 | 0.01 | 0.37 | 0.12 | 91 | 1011.2 |
| 20260507062305 | 54 | 292 | 0.0 | 2.0 | 0.00 | 0.37 | 0.11 | 91 | 1011.0 |
| 20260507062045 | 54 | 292 | 0.0 | 2.0 | 0.00 | 0.37 | 0.11 | 91 | 1011.1 |
| 20260507061303 | 54 | 292 | 0.0 | 2.0 | 0.01 | 0.37 | 0.11 | 91 | 1011.3 |
| 20260507060803 | 54 | 292 | 0.0 | 2.0 | 0.01 | 0.37 | 0.11 | 92 | 1011.2 |
| 20260507060302 | 54 | 292 | 0.0 | 0.0 | 0.01 | 0.37 | 0.11 | 91 | 1011.3 |
| 20260507055803 | 54 | 292 | 0.0 | 0.0 | 0.01 | 0.36 | 0.11 | 91 | 1011.4 |
| 20260507055545 | 54 | 292 | 0.0 | 0.0 | 0.01 | 0.36 | 0.11 | 91 | 1011.1 |
| 20260507054803 | 54 | 292 | 0.0 | 0.0 | 0.01 | 0.36 | 0.11 | 91 | 1011.3 |
| 20260507054304 | 54 | 292 | 0.0 | 0.0 | 0.01 | 0.36 | 0.11 | 91 | 1011.2 |
| 20260507053803 | 54 | 292 | 0.0 | 0.0 | 0.01 | 0.36 | 0.11 | 91 | 1011.0 |
| 20260507053303 | 54 | 292 | 0.0 | 0.0 | 0.01 | 0.36 | 0.11 | 90 | 1011.1 |
| 20260507052803 | 54 | 292 | 0.0 | 0.0 | 0.05 | 0.36 | 0.11 | 90 | 1011.2 |
| 20260507052545 | 54 | 292 | 0.0 | 0.0 | 0.06 | 0.36 | 0.11 | 90 | 1011.3 |
| 20260507052047 | 54 | 292 | 0.0 | 0.0 | 0.07 | 0.36 | 0.10 | 90 | 1011.2 |
| 20260507051303 | 55 | 292 | 0.0 | 0.0 | 0.10 | 0.36 | 0.10 | 90 | 1011.3 |
| 20260507050803 | 55 | 292 | 0.0 | 0.0 | 0.10 | 0.36 | 0.10 | 90 | 1011.2 |
| 20260507050302 | 55 | 292 | 0.0 | 2.0 | 0.10 | 0.36 | 0.10 | 90 | 1011.2 |
| 20260507045803 | 55 | 292 | 0.0 | 2.0 | 0.10 | 0.26 | 0.10 | 90 | 1011.0 |
| 20260507045306 | 55 | 292 | 0.0 | 2.0 | 0.11 | 0.26 | 0.10 | 89 | 1010.8 |
| 20260507044805 | 55 | 292 | 0.0 | 3.0 | 0.11 | 0.26 | 0.10 | 89 | 1011.2 |
| 20260507044304 | 55 | 292 | 0.0 | 3.0 | 0.11 | 0.26 | 0.10 | 89 | 1011.4 |
| 20260507043805 | 56 | 292 | 0.0 | 0.0 | 0.13 | 0.26 | 0.10 | 89 | 1011.4 |
| 20260507043600 | 56 | 292 | 0.0 | 2.0 | 0.14 | 0.26 | 0.10 | 89 | 1011.4 |
| 20260507043045 | 56 | 292 | 0.0 | 2.0 | 0.11 | 0.26 | 0.06 | 89 | 1011.5 |
| 20260507042306 | 56 | 292 | 0.0 | 0.0 | 0.10 | 0.26 | 0.05 | 88 | 1011.1 |
| 20260507041804 | 56 | 292 | 0.0 | 2.0 | 0.09 | 0.26 | 0.03 | 88 | 1011.1 |
| 20260507041544 | 56 | 292 | 0.0 | 2.0 | 0.05 | 0.26 | 0.00 | 87 | 1011.1 |
| 20260507040805 | 57 | 292 | 0.0 | 2.0 | 0.05 | 0.26 | 0.00 | 86 | 1011.1 |
| 20260507040301 | 57 | 292 | 0.0 | 2.0 | 0.05 | 0.26 | 0.00 | 86 | 1011.1 |
| 20260507035801 | 57 | 292 | 0.0 | 2.0 | 0.05 | 0.21 | 0.25 | 86 | 1011.1 |
| 20260507035305 | 58 | 292 | 0.0 | 2.0 | 0.04 | 0.21 | 0.25 | 85 | 1011.1 |
| 20260507034802 | 58 | 292 | 0.0 | 2.0 | 0.04 | 0.21 | 0.25 | 85 | 1011.0 |
| 20260507034302 | 58 | 292 | 0.0 | 3.0 | 0.04 | 0.21 | 0.25 | 84 | 1010.9 |
| 20260507033803 | 59 | 292 | 0.0 | 3.0 | 0.02 | 0.21 | 0.23 | 83 | 1010.5 |
| 20260507033305 | 59 | 292 | 1.0 | 2.0 | 0.01 | 0.21 | 0.22 | 81 | 1010.7 |
| 20260507032801 | 59 | 292 | 0.0 | 2.0 | 0.00 | 0.21 | 0.21 | 81 | 1010.8 |
| 20260507032543 | 59 | 292 | 0.0 | 2.0 | 0.00 | 0.21 | 0.21 | 82 | 1010.6 |
| 20260507031801 | 59 | 292 | 0.0 | 2.0 | 0.00 | 0.21 | 0.21 | 82 | 1010.5 |
| 20260507031303 | 59 | 292 | 0.0 | 2.0 | 0.00 | 0.21 | 0.21 | 82 | 1010.6 |
| 20260507031043 | 60 | 292 | 0.0 | 4.0 | 0.00 | 0.21 | 0.21 | 82 | 1010.5 |
| 20260507030302 | 60 | 292 | 0.0 | 4.0 | 0.00 | 0.21 | 0.21 | 82 | 1010.6 |
| 20260507030042 | 60 | 291 | 1.0 | 3.0 | 0.00 | 0.21 | 0.21 | 81 | 1010.5 |
| 20260507025301 | 60 | 291 | 1.0 | 3.0 | 0.00 | 0.21 | 0.21 | 81 | 1010.2 |
| 20260507024802 | 60 | 265 | 0.0 | 2.0 | 0.00 | 0.21 | 0.21 | 82 | 1010.3 |
| 20260507024301 | 60 | 265 | 0.0 | 2.0 | 0.00 | 0.21 | 0.21 | 82 | 1010.1 |
| 20260507023751 | 60 | 265 | 0.0 | 3.0 | 0.00 | 0.21 | 0.21 | 82 | 1010.1 |
| 20260507023250 | 60 | 288 | 0.0 | 5.0 | 0.00 | 0.21 | 0.21 | 84 | 1009.9 |
| 20260507023034 | 60 | 273 | 1.0 | 5.0 | 0.00 | 0.21 | 0.21 | 84 | 1010.1 |
| 20260507022252 | 60 | 15 | 0.0 | 2.0 | 0.00 | 0.21 | 0.21 | 84 | 1010.2 |
| 20260507021751 | 61 | 15 | 0.0 | 2.0 | 0.00 | 0.21 | 0.21 | 84 | 1009.9 |
| 20260507021251 | 61 | 15 | 0.0 | 2.0 | 0.00 | 0.21 | 0.21 | 84 | 1010.2 |
| 20260507020750 | 61 | 15 | 0.0 | 2.0 | 0.00 | 0.21 | 0.21 | 84 | 1009.9 |
| 20260507020251 | 61 | 15 | 0.0 | 2.0 | 0.00 | 0.21 | 0.21 | 84 | 1010.1 |
| 20260507015752 | 61 | 15 | 0.0 | 3.0 | 0.00 | 0.21 | 0.21 | 84 | 1010.2 |
| 20260507015532 | 61 | 15 | 0.0 | 3.0 | 0.00 | 0.21 | 0.21 | 84 | 1010.1 |
| 20260507014740 | 62 | 280 | 0.0 | 2.0 | 0.01 | 0.21 | 0.21 | 84 | 1010.1 |
| 20260507014240 | 62 | 280 | 0.0 | 2.0 | 0.01 | 0.21 | 0.21 | 84 | 1009.9 |
| 20260507013738 | 62 | 280 | 0.0 | 3.0 | 0.01 | 0.21 | 0.21 | 84 | 1009.7 |
| 20260507013238 | 62 | 280 | 0.0 | 3.0 | 0.01 | 0.21 | 0.21 | 84 | 1009.6 |
| 20260507012739 | 62 | 280 | 0.0 | 3.0 | 0.01 | 0.21 | 0.21 | 84 | 1009.7 |
| 20260507012517 | 62 | 280 | 1.0 | 3.0 | 0.01 | 0.21 | 0.21 | 86 | 1009.8 |
| 20260507011733 | 63 | 274 | 1.0 | 2.0 | 0.01 | 0.21 | 0.21 | 86 | 1009.8 |
| 20260507011230 | 63 | 273 | 0.0 | 3.0 | 0.01 | 0.21 | 0.21 | 86 | 1010.2 |
| 20260507011010 | 63 | 274 | 0.0 | 3.0 | 0.01 | 0.21 | 0.21 | 87 | 1010.2 |
| 20260507010229 | 63 | 287 | 0.0 | 2.0 | 0.01 | 0.21 | 0.21 | 87 | 1010.1 |
| 20260507010009 | 63 | 287 | 0.0 | 2.0 | 0.02 | 0.20 | 0.21 | 86 | 1010.2 |
| 20260507005229 | 64 | 287 | 1.0 | 2.0 | 0.02 | 0.20 | 0.21 | 86 | 1009.8 |
| 20260507004729 | 64 | 287 | 0.0 | 2.0 | 0.01 | 0.20 | 0.20 | 86 | 1010.2 |
| 20260507004229 | 64 | 275 | 0.0 | 1.0 | 0.01 | 0.20 | 0.20 | 86 | 1009.8 |
| 20260507003729 | 64 | 287 | 0.0 | 2.0 | 0.01 | 0.20 | 0.20 | 85 | 1009.7 |
| 20260507003229 | 64 | 275 | 0.0 | 2.0 | 0.01 | 0.20 | 0.20 | 85 | 1009.7 |
| 20260507002730 | 64 | 287 | 0.0 | 2.0 | 0.01 | 0.20 | 0.20 | 85 | 1010.2 |
| 20260507002228 | 64 | 287 | 0.0 | 1.0 | 0.01 | 0.20 | 0.20 | 85 | 1009.7 |
| 20260507001728 | 65 | 287 | 0.0 | 2.0 | 0.01 | 0.20 | 0.20 | 84 | 1009.7 |
| 20260507001229 | 65 | 287 | 0.0 | 4.0 | 0.01 | 0.20 | 0.20 | 84 | 1009.6 |
| 20260507000728 | 65 | 287 | 0.0 | 4.0 | 0.01 | 0.20 | 0.20 | 85 | 1009.6 |
| 20260507000229 | 66 | 227 | 1.0 | 2.0 | 0.01 | 0.20 | 0.20 | 85 | 1009.5 |
| 20260506235729 | 66 | 227 | 0.0 | 2.0 | 0.00 | 0.19 | 0.19 | 86 | 1009.4 |
| 20260506235230 | 66 | 227 | 0.0 | 2.0 | 0.00 | 0.19 | 0.19 | 85 | 1009.2 |
| 20260506234729 | 67 | 227 | 0.0 | 0.0 | 0.00 | 0.19 | 0.19 | 85 | 1009.1 |
| 20260506234230 | 67 | 227 | 0.0 | 0.0 | 0.00 | 0.19 | 0.19 | 84 | 1008.9 |
| 20260506233729 | 67 | 227 | 0.0 | 0.0 | 0.00 | 0.19 | 0.19 | 84 | 1008.8 |
| 20260506233513 | 67 | 227 | 0.0 | 0.0 | 0.00 | 0.19 | 0.19 | 83 | 1008.6 |
| 20260506232729 | 67 | 227 | 0.0 | 0.0 | 0.00 | 0.19 | 0.19 | 83 | 1008.6 |
| 20260506232230 | 67 | 227 | 0.0 | 0.0 | 0.00 | 0.19 | 0.19 | 83 | 1008.8 |
| 20260506231729 | 67 | 227 | 0.0 | 2.0 | 0.00 | 0.19 | 0.19 | 82 | 1008.7 |
| 20260506231230 | 67 | 227 | 0.0 | 2.0 | 0.00 | 0.19 | 0.19 | 82 | 1008.7 |
| 20260506230729 | 68 | 227 | 0.0 | 1.0 | 0.00 | 0.19 | 0.19 | 82 | 1008.6 |
| 20260506230228 | 68 | 227 | 0.0 | 0.0 | 0.00 | 0.19 | 0.19 | 82 | 1008.6 |
| 20260506225729 | 68 | 227 | 0.0 | 0.0 | 0.00 | 0.19 | 0.19 | 82 | 1008.6 |
| 20260506225508 | 68 | 227 | 0.0 | 2.0 | 0.00 | 0.19 | 0.19 | 81 | 1008.6 |
| 20260506224730 | 68 | 227 | 0.0 | 2.0 | 0.00 | 0.19 | 0.19 | 81 | 1008.6 |
| 20260506224230 | 68 | 227 | 0.0 | 2.0 | 0.00 | 0.19 | 0.19 | 81 | 1008.7 |
| 20260506223729 | 68 | 227 | 0.0 | 4.0 | 0.00 | 0.19 | 0.19 | 81 | 1008.5 |
| 20260506223230 | 68 | 227 | 0.0 | 4.0 | 0.00 | 0.19 | 0.19 | 81 | 1008.6 |
| 20260506222729 | 68 | 227 | 2.0 | 3.0 | 0.00 | 0.19 | 0.19 | 81 | 1008.4 |
| 20260506222229 | 67 | 227 | 0.0 | 3.0 | 0.00 | 0.19 | 0.19 | 82 | 1008.4 |
| 20260506222013 | 67 | 227 | 0.0 | 0.0 | 0.00 | 0.19 | 0.19 | 83 | 1008.5 |
| 20260506221230 | 67 | 227 | 0.0 | 0.0 | 0.00 | 0.19 | 0.19 | 82 | 1008.6 |
| 20260506221012 | 67 | 227 | 0.0 | 1.0 | 0.00 | 0.19 | 0.19 | 82 | 1008.5 |
| 20260506220228 | 67 | 227 | 0.0 | 1.0 | 0.00 | 0.19 | 0.19 | 82 | 1008.6 |
| 20260506215749 | 67 | 227 | 0.0 | 0.0 | 0.00 | 0.19 | 0.19 | 81 | 1008.7 |
| 20260506214729 | 68 | 227 | 0.0 | 3.0 | 0.00 | 0.19 | 0.19 | 81 | 1008.5 |
| 20260506214229 | 68 | 227 | 0.0 | 4.0 | 0.00 | 0.19 | 0.19 | 81 | 1008.5 |
| 20260506213730 | 68 | 227 | 0.0 | 4.0 | 0.00 | 0.19 | 0.19 | 81 | 1008.5 |
| 20260506213303 | 68 | 227 | 0.0 | 3.0 | 0.00 | 0.19 | 0.19 | 81 | 1008.5 |
| 20260506212231 | 68 | 227 | 0.0 | 2.0 | 0.00 | 0.19 | 0.19 | 81 | 1008.3 |
| 20260506211732 | 68 | 228 | 1.0 | 6.0 | 0.00 | 0.19 | 0.19 | 81 | 1008.2 |
| 20260506211230 | 67 | 228 | 1.0 | 6.0 | 0.00 | 0.19 | 0.19 | 81 | 1008.1 |
| 20260506210729 | 67 | 192 | 2.0 | 4.0 | 0.00 | 0.19 | 0.19 | 80 | 1008.2 |
| 20260506210516 | 68 | 192 | 1.0 | 2.0 | 0.00 | 0.19 | 0.19 | 81 | 1008.2 |
| 20260506205736 | 68 | 192 | 1.0 | 4.0 | 0.00 | 0.19 | 0.19 | 80 | 1008.1 |
| 20260506205228 | 68 | 192 | 2.0 | 4.0 | 0.00 | 0.19 | 0.19 | 80 | 1008.1 |
| 20260506204729 | 68 | 216 | 0.0 | 6.0 | 0.00 | 0.19 | 0.19 | 80 | 1007.9 |
| 20260506204228 | 68 | 216 | 2.0 | 6.0 | 0.00 | 0.19 | 0.19 | 80 | 1007.9 |
| 20260506203729 | 68 | 204 | 2.0 | 5.0 | 0.00 | 0.19 | 0.19 | 80 | 1008.0 |
| 20260506203514 | 68 | 223 | 2.0 | 6.0 | 0.00 | 0.19 | 0.19 | 80 | 1007.9 |
| 20260506202730 | 68 | 242 | 2.0 | 6.0 | 0.00 | 0.19 | 0.19 | 80 | 1008.0 |
| 20260506202230 | 68 | 229 | 1.0 | 4.0 | 0.00 | 0.19 | 0.19 | 81 | 1007.9 |
| 20260506201729 | 67 | 229 | 2.0 | 7.0 | 0.00 | 0.19 | 0.19 | 81 | 1008.1 |
| 20260506201229 | 67 | 240 | 3.0 | 7.0 | 0.00 | 0.19 | 0.19 | 80 | 1008.2 |
| 20260506200730 | 67 | 157 | 3.0 | 7.0 | 0.00 | 0.19 | 0.19 | 80 | 1008.0 |
| 20260506200230 | 68 | 48 | 3.0 | 6.0 | 0.00 | 0.19 | 0.19 | 80 | 1008.2 |
| 20260506195730 | 68 | 221 | 2.0 | 8.0 | 0.00 | 0.19 | 0.19 | 80 | 1008.0 |
| 20260506195514 | 68 | 234 | 2.0 | 8.0 | 0.00 | 0.19 | 0.19 | 80 | 1008.0 |
| 20260506194729 | 67 | 235 | 4.0 | 8.0 | 0.00 | 0.19 | 0.19 | 80 | 1008.0 |
| 20260506194229 | 67 | 224 | 2.0 | 6.0 | 0.00 | 0.19 | 0.19 | 80 | 1008.1 |
| 20260506193728 | 67 | 207 | 1.0 | 6.0 | 0.00 | 0.19 | 0.19 | 81 | 1008.1 |
| 20260506193231 | 67 | 205 | 2.0 | 11.0 | 0.00 | 0.19 | 0.19 | 80 | 1008.3 |
| 20260506192729 | 67 | 205 | 3.0 | 11.0 | 0.00 | 0.19 | 0.19 | 80 | 1008.2 |
| 20260506192230 | 67 | 180 | 2.0 | 4.0 | 0.00 | 0.19 | 0.19 | 81 | 1008.1 |
| 20260506191729 | 67 | 180 | 1.0 | 4.0 | 0.00 | 0.19 | 0.19 | 81 | 1008.1 |
| 20260506191230 | 67 | 180 | 2.0 | 9.0 | 0.00 | 0.19 | 0.19 | 80 | 1008.1 |
| 20260506190729 | 67 | 239 | 4.0 | 9.0 | 0.00 | 0.19 | 0.19 | 81 | 1008.3 |
| 20260506190229 | 67 | 202 | 1.0 | 8.0 | 0.00 | 0.19 | 0.19 | 81 | 1008.2 |
| 20260506185729 | 67 | 191 | 3.0 | 10.0 | 0.00 | 0.19 | 0.19 | 82 | 1008.2 |
| 20260506185229 | 66 | 128 | 5.0 | 10.0 | 0.00 | 0.19 | 0.19 | 82 | 1008.3 |
| 20260506184729 | 66 | 180 | 1.0 | 5.0 | 0.00 | 0.19 | 0.19 | 82 | 1008.2 |
| 20260506184229 | 66 | 180 | 1.0 | 10.0 | 0.00 | 0.19 | 0.19 | 82 | 1008.3 |
| 20260506183728 | 66 | 229 | 5.0 | 10.0 | 0.00 | 0.19 | 0.19 | 82 | 1008.4 |
| 20260506183228 | 65 | 158 | 3.0 | 6.0 | 0.00 | 0.19 | 0.19 | 82 | 1008.5 |
| 20260506182729 | 65 | 166 | 2.0 | 6.0 | 0.00 | 0.19 | 0.19 | 82 | 1008.4 |
| 20260506182231 | 65 | 219 | 1.0 | 6.0 | 0.00 | 0.19 | 0.19 | 84 | 1008.4 |
| 20260506181755 | 65 | 232 | 3.0 | 8.0 | 0.00 | 0.19 | 0.19 | 83 | 1008.4 |
| 20260506181012 | 65 | 217 | 3.0 | 7.0 | 0.00 | 0.19 | 0.19 | 83 | 1008.4 |
| 20260506180231 | 64 | 162 | 1.0 | 8.0 | 0.00 | 0.19 | 0.19 | 84 | 1008.6 |
| 20260506175733 | 64 | 219 | 4.0 | 8.0 | 0.00 | 0.19 | 0.19 | 84 | 1008.7 |
| 20260506175533 | 64 | 190 | 2.0 | 11.0 | 0.00 | 0.19 | 0.19 | 84 | 1008.6 |
| 20260506174730 | 64 | 193 | 5.0 | 12.0 | 0.00 | 0.19 | 0.19 | 84 | 1008.8 |
| 20260506174229 | 64 | 150 | 3.0 | 12.0 | 0.00 | 0.19 | 0.19 | 85 | 1008.7 |
| 20260506173729 | 63 | 213 | 3.0 | 7.0 | 0.00 | 0.19 | 0.19 | 86 | 1008.7 |
| 20260506173229 | 63 | 182 | 2.0 | 6.0 | 0.00 | 0.19 | 0.19 | 85 | 1008.6 |
| 20260506172728 | 63 | 194 | 2.0 | 5.0 | 0.00 | 0.19 | 0.19 | 86 | 1008.6 |
| 20260506172529 | 63 | 213 | 3.0 | 9.0 | 0.00 | 0.19 | 0.19 | 87 | 1008.6 |
| 20260506172016 | 63 | 126 | 3.0 | 9.0 | 0.00 | 0.19 | 0.19 | 86 | 1008.5 |
| 20260506171229 | 63 | 164 | 3.0 | 9.0 | 0.00 | 0.19 | 0.19 | 88 | 1008.6 |
| 20260506170729 | 62 | 130 | 3.0 | 17.0 | 0.00 | 0.19 | 0.19 | 87 | 1008.6 |
| 20260506170230 | 62 | 162 | 2.0 | 17.0 | 0.00 | 0.19 | 0.19 | 88 | 1008.8 |
| 20260506165729 | 62 | 229 | 3.0 | 6.0 | 0.00 | 0.19 | 0.19 | 88 | 1008.7 |
| 20260506165230 | 62 | 161 | 3.0 | 6.0 | 0.00 | 0.19 | 0.19 | 89 | 1008.8 |
| 20260506164730 | 62 | 220 | 2.0 | 8.0 | 0.00 | 0.19 | 0.19 | 89 | 1008.6 |
| 20260506164230 | 62 | 195 | 3.0 | 8.0 | 0.00 | 0.19 | 0.19 | 89 | 1008.7 |
| 20260506163729 | 61 | 229 | 2.0 | 8.0 | 0.00 | 0.19 | 0.19 | 90 | 1008.7 |
| 20260506163229 | 61 | 132 | 3.0 | 9.0 | 0.00 | 0.19 | 0.19 | 90 | 1008.8 |
| 20260506162727 | 61 | 165 | 3.0 | 9.0 | 0.00 | 0.19 | 0.19 | 90 | 1008.9 |
| 20260506162524 | 61 | 207 | 2.0 | 8.0 | 0.00 | 0.19 | 0.19 | 90 | 1008.9 |
| 20260506162013 | 61 | 210 | 3.0 | 8.0 | 0.00 | 0.19 | 0.19 | 90 | 1008.8 |
| 20260506161228 | 61 | 156 | 4.0 | 13.0 | 0.00 | 0.19 | 0.19 | 90 | 1008.8 |
| 20260506160726 | 61 | 183 | 3.0 | 19.0 | 0.00 | 0.19 | 0.19 | 90 | 1008.8 |
| 20260506160510 | 60 | 253 | 5.0 | 19.0 | 0.00 | 0.19 | 0.19 | 90 | 1008.9 |
| 20260506155719 | 60 | 194 | 2.0 | 10.0 | 0.00 | 0.19 | 0.19 | 91 | 1008.9 |
| 20260506155217 | 60 | 215 | 2.0 | 10.0 | 0.00 | 0.19 | 0.19 | 91 | 1009.0 |
| 20260506154953 | 60 | 46 | 3.0 | 8.0 | 0.01 | 0.19 | 0.19 | 91 | 1009.1 |
| 20260506154214 | 60 | 244 | 2.0 | 9.0 | 0.01 | 0.19 | 0.19 | 91 | 1009.0 |
| 20260506153714 | 60 | 190 | 3.0 | 9.0 | 0.02 | 0.19 | 0.19 | 91 | 1008.9 |
| 20260506153452 | 60 | 231 | 2.0 | 6.0 | 0.03 | 0.19 | 0.19 | 92 | 1008.9 |
| 20260506152948 | 60 | 209 | 2.0 | 7.0 | 0.04 | 0.19 | 0.19 | 92 | 1008.8 |
| 20260506152207 | 60 | 194 | 3.0 | 10.0 | 0.05 | 0.19 | 0.19 | 92 | 1008.9 |
| 20260506151941 | 60 | 250 | 3.0 | 10.0 | 0.05 | 0.19 | 0.19 | 92 | 1009.1 |
| 20260506151203 | 59 | 184 | 1.0 | 7.0 | 0.05 | 0.19 | 0.19 | 92 | 1009.1 |
| 20260506150703 | 59 | 238 | 2.0 | 7.0 | 0.05 | 0.19 | 0.19 | 92 | 1009.3 |
| 20260506150223 | 59 | 223 | 2.0 | 7.0 | 0.06 | 0.19 | 0.19 | 92 | 1009.1 |
| 20260506145203 | 59 | 176 | 3.0 | 6.0 | 0.07 | 0.13 | 0.19 | 92 | 1009.4 |
| 20260506144703 | 59 | 203 | 2.0 | 8.0 | 0.06 | 0.13 | 0.18 | 92 | 1009.6 |
| 20260506144203 | 59 | 179 | 2.0 | 8.0 | 0.06 | 0.13 | 0.18 | 91 | 1009.7 |
| 20260506143703 | 59 | 190 | 2.0 | 6.0 | 0.05 | 0.13 | 0.17 | 91 | 1009.8 |
| 20260506143204 | 59 | 155 | 3.0 | 15.0 | 0.05 | 0.13 | 0.16 | 91 | 1009.8 |
| 20260506142703 | 59 | 140 | 3.0 | 15.0 | 0.05 | 0.13 | 0.14 | 91 | 1009.7 |
| 20260506142204 | 60 | 216 | 2.0 | 6.0 | 0.05 | 0.13 | 0.14 | 91 | 1009.8 |
| 20260506141703 | 60 | 171 | 2.0 | 11.0 | 0.05 | 0.13 | 0.14 | 91 | 1009.6 |
| 20260506141203 | 60 | 171 | 2.0 | 11.0 | 0.06 | 0.13 | 0.14 | 91 | 1009.5 |
| 20260506140702 | 60 | 236 | 3.0 | 11.0 | 0.06 | 0.13 | 0.14 | 91 | 1009.5 |
| 20260506140446 | 60 | 223 | 3.0 | 11.0 | 0.05 | 0.13 | 0.13 | 91 | 1009.7 |
| 20260506135703 | 60 | 215 | 2.0 | 9.0 | 0.06 | 0.07 | 0.13 | 91 | 1009.5 |
| 20260506135204 | 60 | 244 | 2.0 | 9.0 | 0.05 | 0.07 | 0.12 | 91 | 1009.5 |
| 20260506134948 | 60 | 261 | 1.0 | 9.0 | 0.05 | 0.07 | 0.12 | 91 | 1009.6 |
| 20260506134203 | 60 | 186 | 1.0 | 5.0 | 0.06 | 0.07 | 0.12 | 91 | 1009.7 |
| 20260506133705 | 60 | 234 | 1.0 | 3.0 | 0.06 | 0.07 | 0.12 | 91 | 1009.7 |
| 20260506133205 | 60 | 237 | 1.0 | 3.0 | 0.05 | 0.07 | 0.11 | 91 | 1009.5 |
| 20260506132705 | 60 | 324 | 1.0 | 4.0 | 0.05 | 0.07 | 0.10 | 91 | 1009.9 |
| 20260506132206 | 60 | 324 | 1.0 | 6.0 | 0.05 | 0.07 | 0.09 | 90 | 1010.3 |
| 20260506131707 | 60 | 261 | 2.0 | 6.0 | 0.06 | 0.07 | 0.09 | 90 | 1010.3 |
| 20260506131224 | 60 | 228 | 2.0 | 6.0 | 0.06 | 0.07 | 0.08 | 90 | 1010.1 |
| 20260506130203 | 60 | 182 | 0.0 | 2.0 | 0.07 | 0.07 | 0.07 | 90 | 1009.9 |
| 20260506125702 | 60 | 182 | 0.0 | 3.0 | 0.07 | 0.01 | 0.07 | 90 | 1009.8 |
| 20260506125203 | 60 | 182 | 0.0 | 4.0 | 0.07 | 0.01 | 0.07 | 89 | 1009.8 |